STARLINK-31912, 59656

Orbit data source: Space-Track

STARLINK-31912, 59656 is a payload satellite owned by SpaceX/Seattle (US) in LEO that was launched on Mon, 06 May 2024 UTC via an FALCON 9 launch vehicle from the Air Force Eastern Test Range (AFETR). Payload-class satellites include a variety of spacecraft equipped with specific instruments for various scientific and technological missions. These include communications satellites like Starlink; space stations such as the ISS; scientific satellites like the Hubble; Earth observation satellites from companies like Planet Labs, Umbra, and HawkEye 360; GPS; miniature CubeSats for education and research; and military/defense satellites.

Loading next visibility...
Identifier
59656, 2024-084C
Orbit
LEO
Country
Flag of USUS
Related business
Manufacturer
SpaceX/Seattle
Mission
Operational Commercial Communications
Bus & Motor
STARLINK V2M, Unknown motor
Mass
730 kg wet, ~700 kg dry
Launch date (UTC)
2024-05-06 (2 years ago)
Launch vehicle
FALCON 9
Launch site
Air Force Eastern Test Range (AFETR)
Object type
Payload
Rocket body
Debris
Shape & HBR
Box + 2 Pan, 17.7 m
Radar Cross Section
33.884 m², Large (>1 m²)

Expand to show TLE details & history
Last TLE update: 3 days ago

TLE from 3 days ago
0 STARLINK-31912
1 59656U 24084C   26170.51500168  .00002315  00000-0  93615-4 0  9990
2 59656  43.0020 186.9492 0001790 276.0577  84.0071 15.27579736119948
Epoch: 2026-06-19T12:21Z
TLE epoch observation values (Epoch: 2026-06-19T12:21:36.145Z)
Latitude
0.00002°
Longitude
93.80574°
Altitude
482.698 km
Speed
7.626 km/s
True Right ascension
12h 27m 47s
True Declination
0° 00' 00"
Sunlit
Object was in daylight at epoch
Visualization orbit readout
Latitude
Unknown
Longitude
Unknown
Altitude
Unknown
Speed
Unknown
Apparent Right ascension
Unknown
Apparent Declination
Unknown
Sunlit
N/A
Visualization observer readout
Local Sidereal Time
23:18:34
Azimuth
Unknown
Elevation
Unknown
Doppler factor
Unknown
Orbital elements
Apogee altitude
486.223 km
Perigee altitude
483.766 km
Semi-major axis
6,863.132 km
Eccentricity
0.00018
Inclination
43.002°
RAAN
186.9492°
Arg. of periapsis
276.0577°
True anomaly
84.0275°
Mean anomaly
84.0071°
Eccentric anomaly
84.0173°
Mean motion
3.81733 °/min
Orbital period
94.31 mins
BSTAR
0.000093615
Loading maneuver chart data...
Computing Atmospheric mass density...
Loading historical data...
Loading historical data...
Loading historical data...
Loading historical data...
Loading historical data...
Loading historical data...
Loading historical data...

Documentation

Showing up to 5 results
|